Weather in Berezovka

Russia / Republic of Tatarstan     55°54′04″N   49°15′09″E
temp.,
°C
wind,
m/s
gust,
m/s
humid.,
%
clouds,
%
prec.,
mm/h
press.,
hPa
HPBL,
m
7 may, fri
fri700:00+10s368376 0.0 101486
03:00+10s388096 0.0 1014154
06:00+11s5127273 0.0 1014343
09:00+15s71156100 0.0 1014760
12:00+17s81147100 0.0 10142154
15:00+17s81149100 0.0 10132106
18:00+16s61254100 0.0 1012553
21:00+12sw4985100 1.4 1014378
8 may, sat
sat800:00+9nnw3592100 0.3 1015286
03:00+8n3692100 1.8 1017368
06:00+8nne3690100 0.1 1017344
09:00+9ene3486100 0.3 1017368
12:00+13ese237768 0.0 1016652
15:00+16sse456159 0.3 10151394
18:00+15sse4771100 0.2 1014254
21:00+11se41084100 0.2 1013170
9 may, sun
sun900:00+10se51380100 0.0 1012279
03:00+9sse498893 0.0 1012181
06:00+11sse4108396 0.0 1012280
09:00+17s6105599 0.0 1012782
12:00+13sse41079100 0.4 1013369
15:00+18sse5957100 0.6 1013961
18:00+16se3671100 0.0 1012143
21:00+13wsw3688100 0.6 1014162
10 may, mon
mon1000:00+13se1197100 3.1 101632
03:00+10nw5793100 3.1 1018245
06:00+9nw5790100 0.0 1021383
09:00+8nnw5890100 0.6 1023429
12:00+9nnw5784100 0.0 1025597
15:00+9n5882100 0.4 1026670
18:00+10nne59750 0.0 1028742
21:00+6ne23880 0.0 102942
11 may, tue
tue1100:00+5nne22890 0.0 103028
03:00+4nne33905 0.0 103143
06:00+7ne35804 0.0 1032181
09:00+12ne455640 0.0 1032882
12:00+15ne454346 0.0 10321207
15:00+16ne45419 0.0 10311293
18:00+15ne35585 0.0 1031185
21:00+11ne226475 0.0 103114